Location: Newark
(41.8083°N, 72.2500°W)
Time: 12:07:37
(UTC+00:00)

Explorer 11/Cluster Stage 4 - Pass Details

Date: 09 December 2021
Orbit: 467 x 1255 km, 28.8° (Epoch: 24 January)

Event Time Altitude Azimuth Distance (km) Brightness Sun altitude
Rises 09:17:49 0° 253° (WSW) 3,549 - -30.3°
Reaches altitude 10° 09:21:36 10° 230° (SW) 2,772 - -29.6°
Maximum altitude 09:25:08 15° 199° (SSW) 2,576 - -28.9°
Exits shadow 09:25:11 15° 198° (SSW) 2,578 9.1 -28.9°
Drops below altitude 10° 09:28:55 10° 168° (SSE) 3,030 9.7 -28.2°
Sets 09:33:25 0° 147° (SSE) 4,101 10.8 -27.4°
